Home > Weather > Giessen > Past weeks

Flag for Germany Past Weather in Giessen, Hesse, Germany — Yesterday and Last 2 Weeks

Now
57 °F

Passing clouds.


Feels Like: 55 °F
Forecast: 54 / 63 °F
Wind: 8 mph from South

Location: Frankfurt-M-Flughafen Airport

Current Time: May 31, 2016 at 6:02:42 AM

Latest Report: May 31, 2016 at 5:20 AM


Visibility: N/A

Pressure: 29.74 "Hg

Humidity: 88%

Dew Point: 54 °F

Location of GiessenLocation

Past Weather in Giessen — Graph

°F

Giessen Temperature Yesterday

Maximum temperature yesterday: 64 °F (at 9:50 AM)
Minimum temperature yesterday: 59 °F (at 12:50 AM)
Average temperature yesterday: 62 °F

High & Low Weather Summary for the Past Weeks

 TemperatureHumidityPressure
High81 °F (May 22, 3:20 PM)100% (May 19, 12:50 AM)30.12 "Hg (May 19, 12:50 AM)
Low43 °F (May 17, 1:20 AM)24% (May 22, 3:50 PM)29.56 "Hg (May 30, 1:50 AM)
Average59 °F73%29.92 "Hg
* Reported May 16 5:20 AM — May 31 5:20 AM, Giessen, Weather by CustomWeather, © 2016

Note: Actual official high and low records may vary slightly from our data, if they occured in-between our weather recording intervals... More about our weather records

Advertising

Giessen Weather History for the Previous 24 Hours

Scroll right to see more
 ConditionsComfort  
Time TempWeatherWind HumidityBarometerVisibility
5:20 AM
Tue, May 31
57 °FPassing clouds.8 mph88%29.74 "HgN/A
4:50 AM57 °FPartly cloudy.7 mph88%29.74 "HgN/A
4:20 AM59 °FPartly cloudy.9 mph82%29.74 "HgN/A
3:50 AM59 °FPartly cloudy.7 mph82%29.74 "HgN/A
3:20 AM59 °FPassing clouds.8 mph88%29.74 "HgN/A
2:50 AM59 °FPartly cloudy.7 mph88%29.74 "HgN/A
2:20 AM59 °FPassing clouds.8 mph88%29.74 "HgN/A
1:50 AM57 °FPartly cloudy.6 mph94%29.74 "HgN/A
1:20 AM57 °FPartly cloudy.6 mph94%29.74 "HgN/A
12:50 AM57 °FPassing clouds.7 mph94%29.71 "HgN/A
12:20 AM59 °FPassing clouds.3 mph88%29.71 "HgN/A
11:50 PM
Mon, May 30
59 °FPartly cloudy.5 mph88%29.74 "HgN/A
11:20 PM59 °FPassing clouds.8 mph88%29.71 "HgN/A
10:50 PM61 °FPassing clouds.9 mph88%29.71 "HgN/A
10:20 PM61 °FBroken clouds.8 mph88%29.71 "HgN/A
9:50 PM61 °FScattered showers. Broken clouds.10 mph88%29.71 "HgN/A
9:20 PM61 °FScattered showers. Broken clouds.9 mph88%29.68 "HgN/A
8:50 PM61 °FScattered showers. Broken clouds.9 mph94%29.68 "HgN/A
8:20 PM61 °FSprinkles. Broken clouds.6 mph94%29.68 "HgN/A
7:50 PM61 °FRain showers. Partly sunny.9 mph94%29.68 "HgN/A
7:20 PM63 °FRain showers. Broken clouds.9 mph88%29.65 "HgN/A
6:20 PM64 °FSprinkles. Partly sunny.13 mph78%29.65 "HgN/A
5:50 PM64 °FSprinkles. Partly sunny.10 mph83%29.65 "HgN/A
5:20 PM64 °FSprinkles. Broken clouds.10 mph83%29.62 "HgN/A
4:50 PM64 °FScattered showers. Broken clouds.9 mph83%29.62 "HgN/A
4:20 PM64 °FSprinkles. Partly sunny.8 mph83%29.62 "HgN/A
3:50 PM63 °FSprinkles. Partly sunny.12 mph88%29.62 "HgN/A
3:20 PM64 °FScattered showers. Broken clouds.12 mph83%29.62 "HgN/A
2:50 PM63 °FSprinkles. Partly sunny.10 mph88%29.62 "HgN/A
2:20 PM63 °FRain showers. Broken clouds.6 mph88%29.62 "HgN/A
1:50 PM63 °FRain showers. Broken clouds.9 mph88%29.62 "HgN/A
1:20 PM64 °FRain showers. Partly sunny.10 mph83%29.62 "HgN/A
12:50 PM64 °FPartly sunny.10 mph83%29.59 "HgN/A
12:20 PM63 °FDrizzle. Broken clouds.13 mph88%29.59 "HgN/A
11:50 AM61 °FDrizzle. Partly sunny.14 mph94%29.59 "HgN/A
11:20 AM61 °FDrizzle. Partly sunny.14 mph88%29.59 "HgN/A
10:50 AM61 °FDrizzle. Partly sunny.12 mph88%29.56 "Hg3 mi
10:20 AM59 °FDrizzle. Partly sunny.15 mph100%29.56 "Hg2 mi
9:50 AM64 °FBroken clouds.5 mph83%29.56 "HgN/A
9:20 AM61 °FDrizzle. Partly sunny.5 mph94%29.56 "Hg4 mi
8:50 AM61 °FDrizzle. Partly sunny.9 mph94%29.56 "Hg3 mi
8:20 AM61 °FLight rain. Partly sunny.9 mph94%29.56 "HgN/A
7:50 AM61 °FPartly sunny.7 mph94%29.56 "HgN/A
7:20 AM61 °FPartly sunny.7 mph94%29.56 "HgN/A
6:50 AM61 °FDrizzle. Partly sunny.7 mph94%29.56 "HgN/A
6:20 AM61 °FPassing clouds.7 mph94%29.56 "HgN/A
Weather by CustomWeather, © 2016

See weather overviewHow to use our weather pages